owner,sensor,date,latitude,longitude,vertical_datum,sea_water_practical_salinity,qcFlag 
LUMCON,ioos:station:LUMCON:101:1,2015-07-01T05:00:00Z,29.2533,-90.6633,0.53,3.14,1111122 
LUMCON,ioos:station:LUMCON:101:1,2015-07-01T05:15:00Z,29.2533,-90.6633,0.53,3.13,1111122 
LUMCON,ioos:station:LUMCON:101:1,2015-07-01T05:30:00Z,29.2533,-90.6633,0.53,3.15,1111122 
LUMCON,ioos:station:LUMCON:101:1,2015-07-01T05:45:00Z,29.2533,-90.6633,0.53,3.16,1111122 
LUMCON,ioos:station:LUMCON:101:1,2015-07-01T06:00:00Z,29.2533,-90.6633,0.59,3.16,1111122 
LUMCON,ioos:station:LUMCON:101:1,2015-07-01T06:15:00Z,29.2533,-90.6633,0.64,3.12,1111122 
LUMCON,ioos:station:LUMCON:101:1,2015-07-01T06:30:00Z,29.2533,-90.6633,0.68,3.08,1111122 
LUMCON,ioos:station:LUMCON:101:1,2015-07-01T06:45:00Z,29.2533,-90.6633,0.7,3.0,1111122 
LUMCON,ioos:station:LUMCON:101:1,2015-07-01T07:00:00Z,29.2533,-90.6633,0.71,2.7,1111122 
LUMCON,ioos:station:LUMCON:101:1,2015-07-01T07:15:00Z,29.2533,-90.6633,0.72,2.56,1111122 
LUMCON,ioos:station:LUMCON:101:1,2015-07-01T07:30:00Z,29.2533,-90.6633,0.72,2.18,1111122 
LUMCON,ioos:station:LUMCON:101:1,2015-07-01T07:45:00Z,29.2533,-90.6633,0.75,1.95,1111122 
LUMCON,ioos:station:LUMCON:101:1,2015-07-01T08:00:00Z,29.2533,-90.6633,0.78,1.94,1111122 
LUMCON,ioos:station:LUMCON:101:1,2015-07-01T08:15:00Z,29.2533,-90.6633,0.8,1.96,1111122 
LUMCON,ioos:station:LUMCON:101:1,2015-07-01T08:30:00Z,29.2533,-90.6633,0.81,2.05,1111122 
LUMCON,ioos:station:LUMCON:101:1,2015-07-01T08:45:00Z,29.2533,-90.6633,0.81,2.12,1111122 
LUMCON,ioos:station:LUMCON:101:1,2015-07-01T09:00:00Z,29.2533,-90.6633,0.82,2.17,1111122 
LUMCON,ioos:station:LUMCON:101:1,2015-07-01T09:15:00Z,29.2533,-90.6633,0.83,2.2,1111122 
LUMCON,ioos:station:LUMCON:101:1,2015-07-01T09:30:00Z,29.2533,-90.6633,0.84,2.21,1111122 
LUMCON,ioos:station:LUMCON:101:1,2015-07-01T09:45:00Z,29.2533,-90.6633,0.86,2.21,1111122 
LUMCON,ioos:station:LUMCON:101:1,2015-07-01T10:00:00Z,29.2533,-90.6633,0.87,2.21,1111122 
LUMCON,ioos:station:LUMCON:101:1,2015-07-01T10:15:00Z,29.2533,-90.6633,0.88,2.21,1111122 
LUMCON,ioos:station:LUMCON:101:1,2015-07-01T10:30:00Z,29.2533,-90.6633,0.89,2.2,1111122 
LUMCON,ioos:station:LUMCON:101:1,2015-07-01T10:45:00Z,29.2533,-90.6633,0.9,2.21,1111122 
LUMCON,ioos:station:LUMCON:101:1,2015-07-01T11:00:00Z,29.2533,-90.6633,0.92,2.21,1111122 
LUMCON,ioos:station:LUMCON:101:1,2015-07-01T11:15:00Z,29.2533,-90.6633,0.93,2.21,1111122 
LUMCON,ioos:station:LUMCON:101:1,2015-07-01T11:30:00Z,29.2533,-90.6633,0.93,2.21,1111122 
LUMCON,ioos:station:LUMCON:101:1,2015-07-01T11:45:00Z,29.2533,-90.6633,0.94,2.21,1111122 
LUMCON,ioos:station:LUMCON:101:1,2015-07-01T12:00:00Z,29.2533,-90.6633,0.94,2.21,1111122 
LUMCON,ioos:station:LUMCON:101:1,2015-07-01T12:15:00Z,29.2533,-90.6633,0.95,2.22,1111122 
LUMCON,ioos:station:LUMCON:101:1,2015-07-01T12:30:00Z,29.2533,-90.6633,0.97,2.22,1111122 
LUMCON,ioos:station:LUMCON:101:1,2015-07-01T12:45:00Z,29.2533,-90.6633,0.99,2.22,1111122 
LUMCON,ioos:station:LUMCON:101:1,2015-07-01T13:00:00Z,29.2533,-90.6633,1.0,2.23,1111122 
LUMCON,ioos:station:LUMCON:101:1,2015-07-01T13:15:00Z,29.2533,-90.6633,1.01,2.25,1111122 
LUMCON,ioos:station:LUMCON:101:1,2015-07-01T13:30:00Z,29.2533,-90.6633,1.02,2.27,1111122 
LUMCON,ioos:station:LUMCON:101:1,2015-07-01T13:45:00Z,29.2533,-90.6633,1.03,2.3,1111122 
LUMCON,ioos:station:LUMCON:101:1,2015-07-01T14:00:00Z,29.2533,-90.6633,1.03,2.32,1111122 
LUMCON,ioos:station:LUMCON:101:1,2015-07-01T14:15:00Z,29.2533,-90.6633,1.04,2.33,1111122 
LUMCON,ioos:station:LUMCON:101:1,2015-07-01T14:30:00Z,29.2533,-90.6633,1.05,2.34,1111122 
LUMCON,ioos:station:LUMCON:101:1,2015-07-01T14:45:00Z,29.2533,-90.6633,1.06,2.34,1111122 
LUMCON,ioos:station:LUMCON:101:1,2015-07-01T15:00:00Z,29.2533,-90.6633,1.07,2.35,1111122 
LUMCON,ioos:station:LUMCON:101:1,2015-07-01T15:15:00Z,29.2533,-90.6633,1.08,2.36,1111122 
LUMCON,ioos:station:LUMCON:101:1,2015-07-01T15:30:00Z,29.2533,-90.6633,1.09,2.38,1111122 
LUMCON,ioos:station:LUMCON:101:1,2015-07-01T15:45:00Z,29.2533,-90.6633,1.09,2.38,1111122 
LUMCON,ioos:station:LUMCON:101:1,2015-07-01T16:00:00Z,29.2533,-90.6633,1.1,2.4,1111122 
LUMCON,ioos:station:LUMCON:101:1,2015-07-01T16:15:00Z,29.2533,-90.6633,1.11,2.42,1111122 
LUMCON,ioos:station:LUMCON:101:1,2015-07-01T16:30:00Z,29.2533,-90.6633,1.11,2.47,1111122 
LUMCON,ioos:station:LUMCON:101:1,2015-07-01T16:45:00Z,29.2533,-90.6633,1.1,2.54,1111122 
LUMCON,ioos:station:LUMCON:101:1,2015-07-01T17:00:00Z,29.2533,-90.6633,1.09,2.61,1111122 
LUMCON,ioos:station:LUMCON:101:1,2015-07-01T17:15:00Z,29.2533,-90.6633,1.08,2.65,1111122 
LUMCON,ioos:station:LUMCON:101:1,2015-07-01T17:30:00Z,29.2533,-90.6633,1.06,2.71,1111122 
LUMCON,ioos:station:LUMCON:101:1,2015-07-01T17:45:00Z,29.2533,-90.6633,1.07,2.65,1111122 
LUMCON,ioos:station:LUMCON:101:1,2015-07-01T18:00:00Z,29.2533,-90.6633,1.06,2.65,1111122 
LUMCON,ioos:station:LUMCON:101:1,2015-07-01T18:15:00Z,29.2533,-90.6633,1.06,2.65,1111122 
LUMCON,ioos:station:LUMCON:101:1,2015-07-01T18:30:00Z,29.2533,-90.6633,1.06,2.64,1111122 
LUMCON,ioos:station:LUMCON:101:1,2015-07-01T18:45:00Z,29.2533,-90.6633,1.04,2.68,1111122 
LUMCON,ioos:station:LUMCON:101:1,2015-07-01T19:00:00Z,29.2533,-90.6633,1.01,2.83,1111122 
LUMCON,ioos:station:LUMCON:101:1,2015-07-01T19:15:00Z,29.2533,-90.6633,0.97,2.68,1111122 
LUMCON,ioos:station:LUMCON:101:1,2015-07-01T19:30:00Z,29.2533,-90.6633,0.94,2.58,1111122 
LUMCON,ioos:station:LUMCON:101:1,2015-07-01T19:45:00Z,29.2533,-90.6633,0.93,2.56,1111122 
LUMCON,ioos:station:LUMCON:101:1,2015-07-01T20:00:00Z,29.2533,-90.6633,0.92,2.53,1111122 
LUMCON,ioos:station:LUMCON:101:1,2015-07-01T20:15:00Z,29.2533,-90.6633,0.9,2.49,1111122 
LUMCON,ioos:station:LUMCON:101:1,2015-07-01T20:30:00Z,29.2533,-90.6633,0.88,2.47,1111122 
LUMCON,ioos:station:LUMCON:101:1,2015-07-01T20:45:00Z,29.2533,-90.6633,0.85,2.44,1111122 
LUMCON,ioos:station:LUMCON:101:1,2015-07-01T21:00:00Z,29.2533,-90.6633,0.83,2.41,1111122 
LUMCON,ioos:station:LUMCON:101:1,2015-07-01T21:15:00Z,29.2533,-90.6633,0.82,2.39,1111122 
LUMCON,ioos:station:LUMCON:101:1,2015-07-01T21:30:00Z,29.2533,-90.6633,0.81,2.38,1111122 
LUMCON,ioos:station:LUMCON:101:1,2015-07-01T21:45:00Z,29.2533,-90.6633,0.8,2.37,1111122 
LUMCON,ioos:station:LUMCON:101:1,2015-07-01T22:00:00Z,29.2533,-90.6633,0.78,2.36,1111122 
LUMCON,ioos:station:LUMCON:101:1,2015-07-01T22:15:00Z,29.2533,-90.6633,0.76,2.36,1111122 
LUMCON,ioos:station:LUMCON:101:1,2015-07-01T22:30:00Z,29.2533,-90.6633,0.74,2.37,1111122 
LUMCON,ioos:station:LUMCON:101:1,2015-07-01T22:45:00Z,29.2533,-90.6633,0.72,2.38,1111122 
LUMCON,ioos:station:LUMCON:101:1,2015-07-01T23:00:00Z,29.2533,-90.6633,0.7,2.41,1111122 
LUMCON,ioos:station:LUMCON:101:1,2015-07-01T23:15:00Z,29.2533,-90.6633,0.69,2.45,1111122 
LUMCON,ioos:station:LUMCON:101:1,2015-07-01T23:30:00Z,29.2533,-90.6633,0.68,2.47,1111122 
LUMCON,ioos:station:LUMCON:101:1,2015-07-01T23:45:00Z,29.2533,-90.6633,0.67,2.5,1111122 
LUMCON,ioos:station:LUMCON:101:1,2015-07-02T05:00:00Z,29.2533,-90.6633,0.59,2.91,1111122 
LUMCON,ioos:station:LUMCON:101:1,2015-07-02T05:15:00Z,29.2533,-90.6633,0.6,2.92,1111122 
LUMCON,ioos:station:LUMCON:101:1,2015-07-02T05:30:00Z,29.2533,-90.6633,0.61,2.93,1111122 
LUMCON,ioos:station:LUMCON:101:1,2015-07-02T05:45:00Z,29.2533,-90.6633,0.63,2.93,1111122 
LUMCON,ioos:station:LUMCON:101:1,2015-07-02T06:00:00Z,29.2533,-90.6633,0.64,2.93,1111122 
LUMCON,ioos:station:LUMCON:101:1,2015-07-02T06:15:00Z,29.2533,-90.6633,0.65,2.87,1111122 
LUMCON,ioos:station:LUMCON:101:1,2015-07-02T06:30:00Z,29.2533,-90.6633,0.66,2.84,1111122 
LUMCON,ioos:station:LUMCON:101:1,2015-07-02T06:45:00Z,29.2533,-90.6633,0.66,2.81,1111122 
LUMCON,ioos:station:LUMCON:101:1,2015-07-02T07:00:00Z,29.2533,-90.6633,0.66,2.8,1111122 
LUMCON,ioos:station:LUMCON:101:1,2015-07-02T07:15:00Z,29.2533,-90.6633,0.67,2.75,1111122 
LUMCON,ioos:station:LUMCON:101:1,2015-07-02T07:30:00Z,29.2533,-90.6633,0.69,2.66,1111122 
LUMCON,ioos:station:LUMCON:101:1,2015-07-02T07:45:00Z,29.2533,-90.6633,0.71,2.62,1111122 
LUMCON,ioos:station:LUMCON:101:1,2015-07-02T08:00:00Z,29.2533,-90.6633,0.73,2.57,1111122 
LUMCON,ioos:station:LUMCON:101:1,2015-07-02T08:15:00Z,29.2533,-90.6633,0.74,2.53,1111122 
LUMCON,ioos:station:LUMCON:101:1,2015-07-02T08:30:00Z,29.2533,-90.6633,0.76,2.5,1111122 
LUMCON,ioos:station:LUMCON:101:1,2015-07-02T08:45:00Z,29.2533,-90.6633,0.78,2.48,1111122 
LUMCON,ioos:station:LUMCON:101:1,2015-07-02T09:00:00Z,29.2533,-90.6633,0.81,2.5,1111122 
LUMCON,ioos:station:LUMCON:101:1,2015-07-02T09:15:00Z,29.2533,-90.6633,0.81,2.68,1111122 
LUMCON,ioos:station:LUMCON:101:1,2015-07-02T09:30:00Z,29.2533,-90.6633,0.83,2.75,1111122 
LUMCON,ioos:station:LUMCON:101:1,2015-07-02T09:45:00Z,29.2533,-90.6633,0.85,2.85,1111122 
LUMCON,ioos:station:LUMCON:101:1,2015-07-02T10:00:00Z,29.2533,-90.6633,0.87,2.87,1111122 
LUMCON,ioos:station:LUMCON:101:1,2015-07-02T10:15:00Z,29.2533,-90.6633,0.88,2.87,1111122 
LUMCON,ioos:station:LUMCON:101:1,2015-07-02T10:30:00Z,29.2533,-90.6633,0.89,2.88,1111122 
LUMCON,ioos:station:LUMCON:101:1,2015-07-02T10:45:00Z,29.2533,-90.6633,0.9,2.87,1111122 
LUMCON,ioos:station:LUMCON:101:1,2015-07-02T11:00:00Z,29.2533,-90.6633,0.92,2.86,1111122 
LUMCON,ioos:station:LUMCON:101:1,2015-07-02T11:15:00Z,29.2533,-90.6633,0.94,2.87,1111122 
LUMCON,ioos:station:LUMCON:101:1,2015-07-02T11:30:00Z,29.2533,-90.6633,0.94,2.88,1111122 
LUMCON,ioos:station:LUMCON:101:1,2015-07-02T11:45:00Z,29.2533,-90.6633,0.94,2.88,1111122 
LUMCON,ioos:station:LUMCON:101:1,2015-07-02T12:00:00Z,29.2533,-90.6633,0.95,2.89,1111122 
LUMCON,ioos:station:LUMCON:101:1,2015-07-02T12:15:00Z,29.2533,-90.6633,0.97,2.94,1111122 
LUMCON,ioos:station:LUMCON:101:1,2015-07-02T12:30:00Z,29.2533,-90.6633,0.99,3.01,1111122 
LUMCON,ioos:station:LUMCON:101:1,2015-07-02T12:45:00Z,29.2533,-90.6633,1.01,3.01,1111122 
LUMCON,ioos:station:LUMCON:101:1,2015-07-02T13:00:00Z,29.2533,-90.6633,1.01,3.05,1111122 
LUMCON,ioos:station:LUMCON:101:1,2015-07-02T13:15:00Z,29.2533,-90.6633,1.01,3.08,1111122 
LUMCON,ioos:station:LUMCON:101:1,2015-07-02T13:30:00Z,29.2533,-90.6633,1.02,3.12,1111122 
LUMCON,ioos:station:LUMCON:101:1,2015-07-02T13:45:00Z,29.2533,-90.6633,1.04,3.13,1111122 
LUMCON,ioos:station:LUMCON:101:1,2015-07-02T14:00:00Z,29.2533,-90.6633,1.05,3.16,1111122 
LUMCON,ioos:station:LUMCON:101:1,2015-07-02T14:15:00Z,29.2533,-90.6633,1.06,3.18,1111122 
LUMCON,ioos:station:LUMCON:101:1,2015-07-02T14:30:00Z,29.2533,-90.6633,1.06,3.2,1111122 
LUMCON,ioos:station:LUMCON:101:1,2015-07-02T14:45:00Z,29.2533,-90.6633,1.06,3.28,1111122 
LUMCON,ioos:station:LUMCON:101:1,2015-07-02T15:00:00Z,29.2533,-90.6633,1.07,3.36,1111122 
LUMCON,ioos:station:LUMCON:101:1,2015-07-02T15:15:00Z,29.2533,-90.6633,1.09,3.4,1111122 
LUMCON,ioos:station:LUMCON:101:1,2015-07-02T15:30:00Z,29.2533,-90.6633,1.1,3.48,1111122 
LUMCON,ioos:station:LUMCON:101:1,2015-07-02T15:45:00Z,29.2533,-90.6633,1.1,3.58,1111122 
LUMCON,ioos:station:LUMCON:101:1,2015-07-02T16:00:00Z,29.2533,-90.6633,1.11,3.82,1111122 
LUMCON,ioos:station:LUMCON:101:1,2015-07-02T16:15:00Z,29.2533,-90.6633,1.11,3.89,1111122 
LUMCON,ioos:station:LUMCON:101:1,2015-07-02T16:30:00Z,29.2533,-90.6633,1.11,3.94,1111122 
LUMCON,ioos:station:LUMCON:101:1,2015-07-02T16:45:00Z,29.2533,-90.6633,1.11,3.96,1111122 
LUMCON,ioos:station:LUMCON:101:1,2015-07-02T17:00:00Z,29.2533,-90.6633,1.1,3.98,1111122 
LUMCON,ioos:station:LUMCON:101:1,2015-07-02T17:15:00Z,29.2533,-90.6633,1.09,4.5,1111122 
LUMCON,ioos:station:LUMCON:101:1,2015-07-02T17:30:00Z,29.2533,-90.6633,1.09,4.64,1111122 
LUMCON,ioos:station:LUMCON:101:1,2015-07-02T17:45:00Z,29.2533,-90.6633,1.09,4.76,1111122 
LUMCON,ioos:station:LUMCON:101:1,2015-07-02T18:00:00Z,29.2533,-90.6633,1.1,4.77,1111122 
LUMCON,ioos:station:LUMCON:101:1,2015-07-02T18:15:00Z,29.2533,-90.6633,1.09,4.92,1111122 
LUMCON,ioos:station:LUMCON:101:1,2015-07-02T18:30:00Z,29.2533,-90.6633,1.09,4.86,1111122 
LUMCON,ioos:station:LUMCON:101:1,2015-07-02T18:45:00Z,29.2533,-90.6633,1.07,4.85,1111122 
LUMCON,ioos:station:LUMCON:101:1,2015-07-02T19:00:00Z,29.2533,-90.6633,1.05,4.42,1111122 
LUMCON,ioos:station:LUMCON:101:1,2015-07-02T19:15:00Z,29.2533,-90.6633,1.03,4.13,1111122 
LUMCON,ioos:station:LUMCON:101:1,2015-07-02T19:30:00Z,29.2533,-90.6633,1.01,4.17,1111122 
LUMCON,ioos:station:LUMCON:101:1,2015-07-02T19:45:00Z,29.2533,-90.6633,1.0,4.24,1111122 
LUMCON,ioos:station:LUMCON:101:1,2015-07-02T20:00:00Z,29.2533,-90.6633,1.03,4.03,1111122 
LUMCON,ioos:station:LUMCON:101:1,2015-07-02T20:15:00Z,29.2533,-90.6633,1.01,3.98,1111122 
LUMCON,ioos:station:LUMCON:101:1,2015-07-02T20:30:00Z,29.2533,-90.6633,1.0,3.88,1111122 
LUMCON,ioos:station:LUMCON:101:1,2015-07-02T20:45:00Z,29.2533,-90.6633,0.98,3.83,1111122 
LUMCON,ioos:station:LUMCON:101:1,2015-07-02T21:00:00Z,29.2533,-90.6633,0.97,3.77,1111122 
LUMCON,ioos:station:LUMCON:101:1,2015-07-02T21:15:00Z,29.2533,-90.6633,0.95,3.64,1111122 
LUMCON,ioos:station:LUMCON:101:1,2015-07-02T21:30:00Z,29.2533,-90.6633,0.94,3.54,1111122 
LUMCON,ioos:station:LUMCON:101:1,2015-07-02T21:45:00Z,29.2533,-90.6633,0.93,3.46,1111122 
LUMCON,ioos:station:LUMCON:101:1,2015-07-02T22:00:00Z,29.2533,-90.6633,0.91,3.4,1111122 
LUMCON,ioos:station:LUMCON:101:1,2015-07-02T22:15:00Z,29.2533,-90.6633,0.9,3.35,1111122 
LUMCON,ioos:station:LUMCON:101:1,2015-07-02T22:30:00Z,29.2533,-90.6633,0.88,3.28,1111122 
LUMCON,ioos:station:LUMCON:101:1,2015-07-02T22:45:00Z,29.2533,-90.6633,0.87,3.26,1111122 
LUMCON,ioos:station:LUMCON:101:1,2015-07-02T23:00:00Z,29.2533,-90.6633,0.86,3.2,1111122 
LUMCON,ioos:station:LUMCON:101:1,2015-07-02T23:15:00Z,29.2533,-90.6633,0.84,3.18,1111122 
LUMCON,ioos:station:LUMCON:101:1,2015-07-02T23:30:00Z,29.2533,-90.6633,0.83,3.14,1111122 
LUMCON,ioos:station:LUMCON:101:1,2015-07-02T23:45:00Z,29.2533,-90.6633,0.81,3.11,1111122 
LUMCON,ioos:station:LUMCON:101:1,2015-07-03T05:00:00Z,29.2533,-90.6633,0.66,3.06,1111122 
LUMCON,ioos:station:LUMCON:101:1,2015-07-03T05:15:00Z,29.2533,-90.6633,0.66,3.06,1111122 
LUMCON,ioos:station:LUMCON:101:1,2015-07-03T05:30:00Z,29.2533,-90.6633,0.66,3.06,1111122 
LUMCON,ioos:station:LUMCON:101:1,2015-07-03T05:45:00Z,29.2533,-90.6633,0.66,3.07,1111122 
LUMCON,ioos:station:LUMCON:101:1,2015-07-03T06:00:00Z,29.2533,-90.6633,0.67,3.06,1111122 
LUMCON,ioos:station:LUMCON:101:1,2015-07-03T06:15:00Z,29.2533,-90.6633,0.69,3.07,1111122 
LUMCON,ioos:station:LUMCON:101:1,2015-07-03T06:30:00Z,29.2533,-90.6633,0.7,3.07,1111122 
LUMCON,ioos:station:LUMCON:101:1,2015-07-03T06:45:00Z,29.2533,-90.6633,0.7,3.1,1111122 
LUMCON,ioos:station:LUMCON:101:1,2015-07-03T07:00:00Z,29.2533,-90.6633,0.7,3.09,1111122 
LUMCON,ioos:station:LUMCON:101:1,2015-07-03T07:15:00Z,29.2533,-90.6633,0.71,3.11,1111122 
LUMCON,ioos:station:LUMCON:101:1,2015-07-03T07:30:00Z,29.2533,-90.6633,0.72,3.1,1111122 
LUMCON,ioos:station:LUMCON:101:1,2015-07-03T07:45:00Z,29.2533,-90.6633,0.74,3.11,1111122 
LUMCON,ioos:station:LUMCON:101:1,2015-07-03T08:00:00Z,29.2533,-90.6633,0.76,3.12,1111122 
LUMCON,ioos:station:LUMCON:101:1,2015-07-03T08:15:00Z,29.2533,-90.6633,0.77,3.15,1111122 
LUMCON,ioos:station:LUMCON:101:1,2015-07-03T08:30:00Z,29.2533,-90.6633,0.78,3.29,1111122 
LUMCON,ioos:station:LUMCON:101:1,2015-07-03T08:45:00Z,29.2533,-90.6633,0.8,3.39,1111122 
LUMCON,ioos:station:LUMCON:101:1,2015-07-03T09:00:00Z,29.2533,-90.6633,0.81,3.45,1111122 
LUMCON,ioos:station:LUMCON:101:1,2015-07-03T09:15:00Z,29.2533,-90.6633,0.83,3.53,1111122 
LUMCON,ioos:station:LUMCON:101:1,2015-07-03T09:30:00Z,29.2533,-90.6633,0.84,3.74,1111122 
LUMCON,ioos:station:LUMCON:101:1,2015-07-03T09:45:00Z,29.2533,-90.6633,0.86,3.95,1111122 
LUMCON,ioos:station:LUMCON:101:1,2015-07-03T10:00:00Z,29.2533,-90.6633,0.86,3.97,1111122 
LUMCON,ioos:station:LUMCON:101:1,2015-07-03T10:15:00Z,29.2533,-90.6633,0.87,4.04,1111122 
LUMCON,ioos:station:LUMCON:101:1,2015-07-03T10:30:00Z,29.2533,-90.6633,0.87,4.06,1111122 
LUMCON,ioos:station:LUMCON:101:1,2015-07-03T10:45:00Z,29.2533,-90.6633,0.89,4.09,1111122 
LUMCON,ioos:station:LUMCON:101:1,2015-07-03T11:00:00Z,29.2533,-90.6633,0.9,4.08,1111122 
LUMCON,ioos:station:LUMCON:101:1,2015-07-03T11:15:00Z,29.2533,-90.6633,0.92,4.07,1111122 
LUMCON,ioos:station:LUMCON:101:1,2015-07-03T11:30:00Z,29.2533,-90.6633,0.93,4.02,1111122 
LUMCON,ioos:station:LUMCON:101:1,2015-07-03T11:45:00Z,29.2533,-90.6633,0.93,4.0,1111122 
LUMCON,ioos:station:LUMCON:101:1,2015-07-03T12:00:00Z,29.2533,-90.6633,0.95,3.84,1111122 
LUMCON,ioos:station:LUMCON:101:1,2015-07-03T12:15:00Z,29.2533,-90.6633,0.96,3.8,1111122 
LUMCON,ioos:station:LUMCON:101:1,2015-07-03T12:30:00Z,29.2533,-90.6633,0.98,3.85,1111122 
LUMCON,ioos:station:LUMCON:101:1,2015-07-03T12:45:00Z,29.2533,-90.6633,0.99,3.88,1111122 
LUMCON,ioos:station:LUMCON:101:1,2015-07-03T13:00:00Z,29.2533,-90.6633,0.99,3.87,1111122 
LUMCON,ioos:station:LUMCON:101:1,2015-07-03T13:15:00Z,29.2533,-90.6633,1.0,3.9,1111122 
LUMCON,ioos:station:LUMCON:101:1,2015-07-03T13:30:00Z,29.2533,-90.6633,1.0,3.92,1111122 
LUMCON,ioos:station:LUMCON:101:1,2015-07-03T13:45:00Z,29.2533,-90.6633,1.01,4.0,1111122 
LUMCON,ioos:station:LUMCON:101:1,2015-07-03T14:00:00Z,29.2533,-90.6633,1.02,4.03,1111122 
LUMCON,ioos:station:LUMCON:101:1,2015-07-03T14:15:00Z,29.2533,-90.6633,1.03,4.04,1111122 
LUMCON,ioos:station:LUMCON:101:1,2015-07-03T14:30:00Z,29.2533,-90.6633,1.04,4.1,1111122 
LUMCON,ioos:station:LUMCON:101:1,2015-07-03T14:45:00Z,29.2533,-90.6633,1.05,4.14,1111122 
LUMCON,ioos:station:LUMCON:101:1,2015-07-03T15:00:00Z,29.2533,-90.6633,1.06,4.2,1111122 
LUMCON,ioos:station:LUMCON:101:1,2015-07-03T15:15:00Z,29.2533,-90.6633,1.06,4.23,1111122 
LUMCON,ioos:station:LUMCON:101:1,2015-07-03T15:30:00Z,29.2533,-90.6633,1.07,4.31,1111122 
LUMCON,ioos:station:LUMCON:101:1,2015-07-03T15:45:00Z,29.2533,-90.6633,1.07,4.34,1111122 
LUMCON,ioos:station:LUMCON:101:1,2015-07-03T16:00:00Z,29.2533,-90.6633,1.08,4.44,1111122 
LUMCON,ioos:station:LUMCON:101:1,2015-07-03T16:15:00Z,29.2533,-90.6633,1.08,4.53,1111122 
LUMCON,ioos:station:LUMCON:101:1,2015-07-03T16:30:00Z,29.2533,-90.6633,1.09,4.54,1111122 
LUMCON,ioos:station:LUMCON:101:1,2015-07-03T16:45:00Z,29.2533,-90.6633,1.09,4.61,1111122 
LUMCON,ioos:station:LUMCON:101:1,2015-07-03T17:00:00Z,29.2533,-90.6633,1.08,4.68,1111122 
LUMCON,ioos:station:LUMCON:101:1,2015-07-03T17:15:00Z,29.2533,-90.6633,1.08,4.7,1111122 
LUMCON,ioos:station:LUMCON:101:1,2015-07-03T17:30:00Z,29.2533,-90.6633,1.09,4.83,1111122 
LUMCON,ioos:station:LUMCON:101:1,2015-07-03T17:45:00Z,29.2533,-90.6633,1.09,4.88,1111122 
LUMCON,ioos:station:LUMCON:101:1,2015-07-03T18:00:00Z,29.2533,-90.6633,1.1,4.97,1111122 
LUMCON,ioos:station:LUMCON:101:1,2015-07-03T18:15:00Z,29.2533,-90.6633,1.09,4.97,1111122 
LUMCON,ioos:station:LUMCON:101:1,2015-07-03T18:30:00Z,29.2533,-90.6633,1.09,5.04,1111122 
LUMCON,ioos:station:LUMCON:101:1,2015-07-03T18:45:00Z,29.2533,-90.6633,1.08,5.08,1111122 
LUMCON,ioos:station:LUMCON:101:1,2015-07-03T19:00:00Z,29.2533,-90.6633,1.08,4.94,1111122 
LUMCON,ioos:station:LUMCON:101:1,2015-07-03T19:15:00Z,29.2533,-90.6633,1.07,4.87,1111122 
LUMCON,ioos:station:LUMCON:101:1,2015-07-03T19:30:00Z,29.2533,-90.6633,1.06,4.89,1111122 
LUMCON,ioos:station:LUMCON:101:1,2015-07-03T19:45:00Z,29.2533,-90.6633,1.06,5.08,1111122 
LUMCON,ioos:station:LUMCON:101:1,2015-07-03T20:00:00Z,29.2533,-90.6633,1.05,4.97,1111122 
LUMCON,ioos:station:LUMCON:101:1,2015-07-03T20:15:00Z,29.2533,-90.6633,1.03,4.7,1111122 
LUMCON,ioos:station:LUMCON:101:1,2015-07-03T20:30:00Z,29.2533,-90.6633,1.01,4.67,1111122 
LUMCON,ioos:station:LUMCON:101:1,2015-07-03T20:45:00Z,29.2533,-90.6633,1.0,4.63,1111122 
LUMCON,ioos:station:LUMCON:101:1,2015-07-03T21:00:00Z,29.2533,-90.6633,1.0,4.56,1111122 
LUMCON,ioos:station:LUMCON:101:1,2015-07-03T21:15:00Z,29.2533,-90.6633,0.98,4.51,1111122 
LUMCON,ioos:station:LUMCON:101:1,2015-07-03T21:30:00Z,29.2533,-90.6633,0.97,4.43,1111122 
LUMCON,ioos:station:LUMCON:101:1,2015-07-03T21:45:00Z,29.2533,-90.6633,0.96,4.35,1111122 
LUMCON,ioos:station:LUMCON:101:1,2015-07-03T22:00:00Z,29.2533,-90.6633,0.94,4.29,1111122 
LUMCON,ioos:station:LUMCON:101:1,2015-07-03T22:15:00Z,29.2533,-90.6633,0.93,4.22,1111122 
LUMCON,ioos:station:LUMCON:101:1,2015-07-03T22:30:00Z,29.2533,-90.6633,0.91,4.15,1111122 
LUMCON,ioos:station:LUMCON:101:1,2015-07-03T22:45:00Z,29.2533,-90.6633,0.9,4.1,1111122 
LUMCON,ioos:station:LUMCON:101:1,2015-07-03T23:00:00Z,29.2533,-90.6633,0.89,4.07,1111122 
LUMCON,ioos:station:LUMCON:101:1,2015-07-03T23:15:00Z,29.2533,-90.6633,0.87,4.02,1111122 
LUMCON,ioos:station:LUMCON:101:1,2015-07-03T23:30:00Z,29.2533,-90.6633,0.86,4.02,1111122 
LUMCON,ioos:station:LUMCON:101:1,2015-07-03T23:45:00Z,29.2533,-90.6633,0.84,3.96,1111122 
LUMCON,ioos:station:LUMCON:101:1,2015-07-04T05:00:00Z,29.2533,-90.6633,0.67,3.42,1111122 
LUMCON,ioos:station:LUMCON:101:1,2015-07-04T05:15:00Z,29.2533,-90.6633,0.68,3.41,1111122 
LUMCON,ioos:station:LUMCON:101:1,2015-07-04T05:30:00Z,29.2533,-90.6633,0.68,3.4,1111122 
LUMCON,ioos:station:LUMCON:101:1,2015-07-04T05:45:00Z,29.2533,-90.6633,0.68,3.39,1111122 
LUMCON,ioos:station:LUMCON:101:1,2015-07-04T06:00:00Z,29.2533,-90.6633,0.69,3.38,1111122 
LUMCON,ioos:station:LUMCON:101:1,2015-07-04T06:15:00Z,29.2533,-90.6633,0.7,3.38,1111122 
LUMCON,ioos:station:LUMCON:101:1,2015-07-04T06:30:00Z,29.2533,-90.6633,0.7,3.37,1111122 
LUMCON,ioos:station:LUMCON:101:1,2015-07-04T06:45:00Z,29.2533,-90.6633,0.71,3.38,1111122 
LUMCON,ioos:station:LUMCON:101:1,2015-07-04T07:00:00Z,29.2533,-90.6633,0.72,3.38,1111122 
LUMCON,ioos:station:LUMCON:101:1,2015-07-04T07:15:00Z,29.2533,-90.6633,0.72,3.42,1111122 
LUMCON,ioos:station:LUMCON:101:1,2015-07-04T07:30:00Z,29.2533,-90.6633,0.73,3.43,1111122 
LUMCON,ioos:station:LUMCON:101:1,2015-07-04T07:45:00Z,29.2533,-90.6633,0.74,3.46,1111122 
LUMCON,ioos:station:LUMCON:101:1,2015-07-04T08:00:00Z,29.2533,-90.6633,0.75,3.47,1111122 
LUMCON,ioos:station:LUMCON:101:1,2015-07-04T08:15:00Z,29.2533,-90.6633,0.76,3.48,1111122 
LUMCON,ioos:station:LUMCON:101:1,2015-07-04T08:30:00Z,29.2533,-90.6633,0.77,3.45,1111122 
LUMCON,ioos:station:LUMCON:101:1,2015-07-04T08:45:00Z,29.2533,-90.6633,0.78,3.45,1111122 
LUMCON,ioos:station:LUMCON:101:1,2015-07-04T09:00:00Z,29.2533,-90.6633,0.8,3.45,1111122 
LUMCON,ioos:station:LUMCON:101:1,2015-07-04T09:15:00Z,29.2533,-90.6633,0.81,3.44,1111122 
LUMCON,ioos:station:LUMCON:101:1,2015-07-04T09:30:00Z,29.2533,-90.6633,0.82,3.46,1111122 
LUMCON,ioos:station:LUMCON:101:1,2015-07-04T09:45:00Z,29.2533,-90.6633,0.84,3.5,1111122 
LUMCON,ioos:station:LUMCON:101:1,2015-07-04T10:00:00Z,29.2533,-90.6633,0.85,3.63,1111122 
LUMCON,ioos:station:LUMCON:101:1,2015-07-04T10:15:00Z,29.2533,-90.6633,0.87,3.78,1111122 
LUMCON,ioos:station:LUMCON:101:1,2015-07-04T10:30:00Z,29.2533,-90.6633,0.88,3.85,1111122 
LUMCON,ioos:station:LUMCON:101:1,2015-07-04T10:45:00Z,29.2533,-90.6633,0.89,3.93,1111122 
LUMCON,ioos:station:LUMCON:101:1,2015-07-04T11:00:00Z,29.2533,-90.6633,0.9,3.98,1111122 
LUMCON,ioos:station:LUMCON:101:1,2015-07-04T11:15:00Z,29.2533,-90.6633,0.91,4.0,1111122 
LUMCON,ioos:station:LUMCON:101:1,2015-07-04T11:30:00Z,29.2533,-90.6633,0.92,4.03,1111122 
LUMCON,ioos:station:LUMCON:101:1,2015-07-04T11:45:00Z,29.2533,-90.6633,0.93,4.05,1111122 
LUMCON,ioos:station:LUMCON:101:1,2015-07-04T12:00:00Z,29.2533,-90.6633,0.93,4.06,1111122 
LUMCON,ioos:station:LUMCON:101:1,2015-07-04T12:15:00Z,29.2533,-90.6633,0.94,4.06,1111122 
LUMCON,ioos:station:LUMCON:101:1,2015-07-04T12:30:00Z,29.2533,-90.6633,0.94,4.05,1111122 
LUMCON,ioos:station:LUMCON:101:1,2015-07-04T12:45:00Z,29.2533,-90.6633,0.95,4.05,1111122 
LUMCON,ioos:station:LUMCON:101:1,2015-07-04T13:00:00Z,29.2533,-90.6633,0.96,4.03,1111122 
LUMCON,ioos:station:LUMCON:101:1,2015-07-04T13:15:00Z,29.2533,-90.6633,0.97,4.0,1111122 
LUMCON,ioos:station:LUMCON:101:1,2015-07-04T13:30:00Z,29.2533,-90.6633,0.98,3.98,1111122 
LUMCON,ioos:station:LUMCON:101:1,2015-07-04T13:45:00Z,29.2533,-90.6633,0.99,3.94,1111122 
LUMCON,ioos:station:LUMCON:101:1,2015-07-04T14:00:00Z,29.2533,-90.6633,0.99,3.92,1111122 
LUMCON,ioos:station:LUMCON:101:1,2015-07-04T14:15:00Z,29.2533,-90.6633,1.0,3.91,1111122 